EN

Hourly Weather Dzhuryn

Today, 22 October, Thursday

Time Temperature Precipitation Wind Pressure Humidity
00:00 +9°C° 0 mm 1 mps 734 mmHg 57%
01:00 +9°C° 0 mm 1 mps 734 mmHg 57%
02:00 +9°C° 0 mm 1 mps 734 mmHg 58%
03:00 +9°C° 0 mm 1 mps 734 mmHg 58%
04:00 +9°C° 0 mm 1 mps 734 mmHg 58%
05:00 +9°C° 0 mm 1 mps 734 mmHg 58%
06:00 +9°C° 0 mm 1 mps 734 mmHg 58%
07:00 +9°C° 0 mm 1 mps 734 mmHg 59%
08:00 +10°C° 0 mm 1 mps 734 mmHg 60%
09:00 +12°C° 0 mm 1 mps 735 mmHg 56%
10:00 +14°C° 0 mm 2 mps 735 mmHg 52%
11:00 +15°C° 0 mm 2 mps 735 mmHg 49%
12:00 +17°C° 0 mm 2 mps 735 mmHg 48%
13:00 +18°C° 0 mm 2 mps 735 mmHg 47%
14:00 +20°C° 0 mm 1 mps 734 mmHg 47%
15:00 +18°C° 0 mm 1 mps 734 mmHg 52%
16:00 +16°C° 0 mm 1 mps 734 mmHg 57%
17:00 +15°C° 0 mm 1 mps 734 mmHg 62%
18:00 +14°C° 0 mm 1 mps 734 mmHg 63%
19:00 +13°C° 0 mm 0 mps 734 mmHg 64%
20:00 +12°C° 0 mm 0 mps 734 mmHg 65%
21:00 +13°C° 0 mm 1 mps 734 mmHg 66%
22:00 +13°C° 0 mm 1 mps 734 mmHg 66%
23:00 +12°C° 0 mm 1 mps 734 mmHg 66%

Tomorrow, 23 October, Friday

Time Temperature Precipitation Wind Pressure Humidity
00:00 +12°C° 0 mm 1 mps 734 mmHg 67%
01:00 +12°C° 0 mm 1 mps 734 mmHg 67%
02:00 +11°C° 0 mm 1 mps 734 mmHg 67%
03:00 +11°C° 0 mm 1 mps 734 mmHg 68%
04:00 +9°C° 0 mm 0 mps 733 mmHg 68%
05:00 +9°C° 0 mm 0 mps 733 mmHg 69%
06:00 +9°C° 0 mm 0 mps 733 mmHg 69%
07:00 +9°C° 0 mm 0 mps 733 mmHg 69%
08:00 +10°C° 0 mm 0 mps 733 mmHg 68%
09:00 +11°C° 0 mm 0 mps 733 mmHg 63%
10:00 +14°C° 0 mm 1 mps 733 mmHg 58%
11:00 +15°C° 0 mm 1 mps 732 mmHg 53%
12:00 +16°C° 0 mm 1 mps 732 mmHg 52%
13:00 +18°C° 0 mm 1 mps 732 mmHg 51%
14:00 +18°C° 0 mm 1 mps 731 mmHg 49%
15:00 +16°C° 0 mm 1 mps 731 mmHg 54%
16:00 +15°C° 0 mm 1 mps 731 mmHg 59%
17:00 +14°C° 0 mm 1 mps 731 mmHg 63%
18:00 +14°C° 0 mm 1 mps 731 mmHg 64%
19:00 +14°C° 0 mm 1 mps 731 mmHg 65%
20:00 +13°C° 0 mm 1 mps 731 mmHg 66%
21:00 +13°C° 0 mm 1 mps 731 mmHg 67%
22:00 +13°C° 0 mm 1 mps 731 mmHg 68%
23:00 +11°C° 0 mm 0 mps 731 mmHg 69%

Day after tomorrow, 24 October, Saturday

Time Temperature Precipitation Wind Pressure Humidity
00:00 +11°C° 0 mm 0 mps 731 mmHg 70%
01:00 +12°C° 0 mm 1 mps 730 mmHg 70%
02:00 +12°C° 0 mm 1 mps 730 mmHg 71%
03:00 +11°C° 0 mm 1 mps 730 mmHg 71%
04:00 +11°C° 0 mm 1 mps 730 mmHg 71%
05:00 +10°C° 0 mm 2 mps 730 mmHg 70%
06:00 +10°C° 0 mm 2 mps 730 mmHg 70%
07:00 +12°C° 0 mm 2 mps 730 mmHg 69%
08:00 +12°C° 0 mm 2 mps 730 mmHg 69%
09:00 +12°C° 0 mm 2 mps 730 mmHg 68%
10:00 +13°C° 0 mm 2 mps 729 mmHg 68%
11:00 +13°C° 0 mm 1 mps 729 mmHg 68%
12:00 +13°C° 0 mm 2 mps 729 mmHg 69%
13:00 +14°C° 0 mm 2 mps 729 mmHg 69%
14:00 +13°C° 0 mm 3 mps 729 mmHg 70%
15:00 +13°C° 0 mm 3 mps 730 mmHg 73%
16:00 +13°C° 0 mm 3 mps 730 mmHg 75%
17:00 +13°C° 0 mm 3 mps 730 mmHg 78%
18:00 +12°C° 0 mm 4 mps 731 mmHg 81%
19:00 +12°C° 0 mm 4 mps 731 mmHg 84%
20:00 +12°C° 0 mm 5 mps 732 mmHg 88%
21:00 +12°C° 0 mm 5 mps 732 mmHg 88%
22:00 +12°C° 0 mm 5 mps 732 mmHg 88%
23:00 +12°C° 0 mm 5 mps 732 mmHg 88%

, 25 October, Sunday

Time Temperature Precipitation Wind Pressure Humidity
00:00 +10°C° 0 mm 5 mps 732 mmHg 90%
01:00 +10°C° 0 mm 4 mps 733 mmHg 92%
02:00 +10°C° 0 mm 4 mps 733 mmHg 95%
03:00 +9°C° 0 mm 3 mps 733 mmHg 95%
04:00 +9°C° 0 mm 3 mps 733 mmHg 96%
05:00 +8°C° 0 mm 2 mps 734 mmHg 97%
06:00 +9°C° 0 mm 2 mps 734 mmHg 97%
07:00 +10°C° 0 mm 1 mps 734 mmHg 97%
08:00 +10°C° 0 mm 1 mps 734 mmHg 97%
09:00 +11°C° 0 mm 1 mps 734 mmHg 90%
10:00 +13°C° 0 mm 1 mps 734 mmHg 82%
11:00 +14°C° 0 mm 1 mps 734 mmHg 75%
12:00 +15°C° 0 mm 1 mps 734 mmHg 71%
13:00 +15°C° 0 mm 1 mps 734 mmHg 68%
14:00 +16°C° 0 mm 1 mps 734 mmHg 64%
15:00 +15°C° 0 mm 1 mps 733 mmHg 67%
16:00 +14°C° 0 mm 1 mps 733 mmHg 70%
17:00 +14°C° 0 mm 2 mps 733 mmHg 73%
18:00 +13°C° 0 mm 2 mps 733 mmHg 76%
19:00 +12°C° 0 mm 2 mps 733 mmHg 78%
20:00 +12°C° 0 mm 2 mps 734 mmHg 81%
21:00 +10°C° 0 mm 2 mps 734 mmHg 83%
22:00 +10°C° 0 mm 3 mps 734 mmHg 85%
23:00 +9°C° 0 mm 3 mps 733 mmHg 87%

25 October, Sunday

Time Temperature Precipitation Wind Pressure Humidity
00:00 +10°C° 0 mm 5 mps 732 mmHg 90%
01:00 +10°C° 0 mm 4 mps 733 mmHg 92%
02:00 +10°C° 0 mm 4 mps 733 mmHg 95%
03:00 +9°C° 0 mm 3 mps 733 mmHg 95%
04:00 +9°C° 0 mm 3 mps 733 mmHg 96%
05:00 +8°C° 0 mm 2 mps 734 mmHg 97%
06:00 +9°C° 0 mm 2 mps 734 mmHg 97%
07:00 +10°C° 0 mm 1 mps 734 mmHg 97%
08:00 +10°C° 0 mm 1 mps 734 mmHg 97%
09:00 +11°C° 0 mm 1 mps 734 mmHg 90%
10:00 +13°C° 0 mm 1 mps 734 mmHg 82%
11:00 +14°C° 0 mm 1 mps 734 mmHg 75%
12:00 +15°C° 0 mm 1 mps 734 mmHg 71%
13:00 +15°C° 0 mm 1 mps 734 mmHg 68%
14:00 +16°C° 0 mm 1 mps 734 mmHg 64%
15:00 +15°C° 0 mm 1 mps 733 mmHg 67%
16:00 +14°C° 0 mm 1 mps 733 mmHg 70%
17:00 +14°C° 0 mm 2 mps 733 mmHg 73%
18:00 +13°C° 0 mm 2 mps 733 mmHg 76%
19:00 +12°C° 0 mm 2 mps 733 mmHg 78%
20:00 +12°C° 0 mm 2 mps 734 mmHg 81%
21:00 +10°C° 0 mm 2 mps 734 mmHg 83%
22:00 +10°C° 0 mm 3 mps 734 mmHg 85%
23:00 +9°C° 0 mm 3 mps 733 mmHg 87%

26 October, Monday

Time Temperature Precipitation Wind Pressure Humidity
00:00 +9°C° 0 mm 3 mps 733 mmHg 88%
01:00 +9°C° 0 mm 3 mps 733 mmHg 89%
02:00 +8°C° 0 mm 4 mps 733 mmHg 90%
03:00 +8°C° 0 mm 4 mps 733 mmHg 90%
04:00 +8°C° 0 mm 4 mps 732 mmHg 89%
05:00 +7°C° 0 mm 5 mps 732 mmHg 89%
06:00 +8°C° 0 mm 5 mps 732 mmHg 88%
07:00 +8°C° 0 mm 5 mps 732 mmHg 88%
08:00 +8°C° 0 mm 5 mps 732 mmHg 87%
09:00 +9°C° 0 mm 6 mps 732 mmHg 83%
10:00 +10°C° 0 mm 6 mps 732 mmHg 79%
11:00 +12°C° 0 mm 7 mps 731 mmHg 75%
12:00 +12°C° 0 mm 7 mps 731 mmHg 74%
13:00 +14°C° 0 mm 7 mps 731 mmHg 72%
14:00 +14°C° 0 mm 7 mps 730 mmHg 71%
15:00 +14°C° 0 mm 7 mps 730 mmHg 73%
16:00 +12°C° 0 mm 7 mps 730 mmHg 76%
17:00 +11°C° 0 mm 7 mps 729 mmHg 78%
18:00 +11°C° 0 mm 7 mps 730 mmHg 81%
19:00 +11°C° 0 mm 6 mps 730 mmHg 83%
20:00 +11°C° 0 mm 6 mps 730 mmHg 85%
21:00 +11°C° 0 mm 6 mps 730 mmHg 87%
22:00 +11°C° 0 mm 6 mps 730 mmHg 90%
23:00 +11°C° 0 mm 6 mps 730 mmHg 92%

27 October, Tuesday

Time Temperature Precipitation Wind Pressure Humidity
00:00 +10°C° 0 mm 5 mps 730 mmHg 93%
01:00 +10°C° 0 mm 5 mps 730 mmHg 94%
02:00 +11°C° 0 mm 4 mps 730 mmHg 95%
03:00 +11°C° 0 mm 4 mps 730 mmHg 95%
04:00 +11°C° 0 mm 4 mps 730 mmHg 96%
05:00 +10°C° 0 mm 4 mps 730 mmHg 97%
06:00 +11°C° 0 mm 4 mps 730 mmHg 96%
07:00 +11°C° 0 mm 4 mps 731 mmHg 95%
08:00 +11°C° 0 mm 4 mps 731 mmHg 94%
09:00 +12°C° 0 mm 4 mps 731 mmHg 90%
10:00 +13°C° 0 mm 4 mps 731 mmHg 85%
11:00 +14°C° 0 mm 4 mps 731 mmHg 80%
12:00 +14°C° 0 mm 4 mps 731 mmHg 77%
13:00 +15°C° 0 mm 4 mps 731 mmHg 75%
14:00 +17°C° 0 mm 4 mps 731 mmHg 72%
15:00 +15°C° 0 mm 4 mps 731 mmHg 75%
16:00 +15°C° 0 mm 4 mps 730 mmHg 79%
17:00 +14°C° 0 mm 3 mps 730 mmHg 83%
18:00 +14°C° 0 mm 3 mps 730 mmHg 85%
19:00 +13°C° 0 mm 3 mps 730 mmHg 87%
20:00 +13°C° 0 mm 3 mps 730 mmHg 90%
21:00 +13°C° 0 mm 3 mps 730 mmHg 91%
22:00 +13°C° 0 mm 3 mps 730 mmHg 93%
23:00 +12°C° 0 mm 3 mps 730 mmHg 94%
Show more